Location: Observatory
(52.1446°N, 0.4624°W)
Time: 10:55:06
(UTC+01:00)

ISS - Pass Details

Date: 04 July 2020
Orbit: 417 x 420 km, 51.6° (Epoch: 02 July)

Event Time Altitude Azimuth Distance (km) Brightness Sun altitude
Exits shadow 03:55:57 - 233° (SW) 1,654 -1.4 -6.4°
Reaches altitude 10° 03:56:21 10° 231° (SW) 1,493 -1.6 -6.3°
Maximum altitude 03:59:34 45° 158° (SSE) 583 -3.2 -6.0°
Drops below altitude 10° 04:02:48 10° 84° (E) 1,498 -0.2 -5.7°
Sets 04:04:56 0° 78° (ENE) 2,363 1.0 -5.5°
